Regional Weather Roundup
Issued by NWS

Home | Current Version | Previous Version | Text Only | Print | Product List | Glossary Off
Versions: 1 2 3 4 5 6 7 8 9 10 11 12 13 14 15 16 17 18 19 20 21 22 23 24 25 26 27 28 29 30 31 32 33 34 35 36 37 38 39 40 41 42 43 44 45 46 47 48 49 50

000
ASUS43 KFSD 231902
RWRSD

WEATHER ROUNDUP FOR SOUTH DAKOTA
NATIONAL WEATHER SERVICE SIOUX FALLS SD
200 PM CDT SAT JUL 23 2016

NOTE: "FAIR" INDICATES FEW OR NO CLOUDS BELOW 12,000 FEET WITH NO
SIGNIFICANT WEATHER AND/OR OBSTRUCTIONS TO VISIBILITY.


SDZ001>005-009-010-012>017-232000-
NORTHWEST AND NORTH CENTRAL SOUTH DAKOTA

CITY           SKY/WX    TMP DP  RH WIND       PRES   REMARKS
BUFFALO          N/A     85  40  20 NW23G37   29.88R
FAITH            N/A     88  48  25 NW26G39   29.87R
MOBRIDGE       MOSUNNY   87  71  58 N14       29.75R
$$

SDZ012>016-024>037-041>051-057-063-072>074-232000-
SOUTHWEST AND SOUTH CENTRAL SOUTH DAKOTA

CITY           SKY/WX    TMP DP  RH WIND       PRES   REMARKS
RAPID CTY ARPT SUNNY     88  45  22 NW24G31   29.95S
PIERRE         SUNNY     94  66  39 NW24      29.74R HX  97
CUSTER         SUNNY     87  29  12 VRB6G18   30.09R
ELLSWORTH AFB  SUNNY     87  44  22 NW20G26   29.96R
PHILIP         SUNNY     92  55  28 N25G39    29.83R
PINE RIDGE     SUNNY     90  51  26 N14G20    29.95R
WINNER         FAIR      97  64  33 W12       29.77R HX  99
$$

SDZ004>011-016>023-039-040-232000-
NORTHEAST SOUTH DAKOTA

CITY           SKY/WX    TMP DP  RH WIND       PRES   REMARKS
ABERDEEN       MOSUNNY   85  73  67 SE3       29.74F
WATERTOWN      MOSUNNY   86  71  60 S10       29.79R
$$

SDZ017-020-022-023-036>040-048>070-232000-
SOUTHEAST SOUTH DAKOTA

CITY           SKY/WX    TMP DP  RH WIND       PRES   REMARKS
SIOUX FALLS    CLOUDY    89  73  59 S12G17    29.78S HX  97
HURON          SUNNY     90  70  51 S16       29.72S HX  95
CHAMBERLAIN    SUNNY     94  69  44 SW14      29.74S HX 100
MITCHELL       SUNNY     91  69  48 S13       29.72F HX  96
YANKTON        SUNNY     93  70  46 S13G18    29.73F HX  99
$$

ABBREVIATIONS USED IN REMARKS
   TC - TEMPERATURE IN CELSIUS
  WCI - WIND CHILL INDEX
   HX - HEAT INDEX
  VSB - VISIBILITY





USA.gov is the U.S. government's official web portal to all federal, state and local government web resources and services.